Location: Berlin
(52.5170°N, 13.3889°E)
Time: 21:47:28
(UTC+02:00)

LES 1 - Pass Details

Date: 16 June 2025
Orbit: 2779 x 2808 km, 32.1° (Epoch: 12 July)

Event Time Altitude Azimuth Distance (km) Brightness Sun altitude
Rises 03:20:29 0° 257° (WSW) 6,575 11.9 -8.8°
Reaches altitude 10° 03:25:16 10° 249° (WSW) 5,557 11.4 -8.4°
Maximum altitude 03:38:24 33° 192° (SSW) 3,990 10.7 -7.3°
Drops below altitude 10° 03:51:37 10° 136° (SE) 5,573 11.8 -6.1°
Sets 03:56:26 0° 127° (SE) 6,596 12.3 -5.7°
